Flag for Germany Weather past 2 weeks in Wermelskirchen, North Rhine-Westphalia, Germany

Now
79 °F

Sunny.


Feels Like: 80 °F
Forecast: 67 / 88 °F
Wind: 6 mph from Southeast

Location: Koeln / Bonn

Current Time: Jul 4, 2015 at 10:45:42 PM

Latest Report: Jul 4, 2015 at 10:20 PM


Visibility: 10 mi

Pressure: 30.07 "Hg

Humidity: 58%

Dew point: 63 °F

Location of WermelskirchenLocation

Historic Weather in Wermelskirchen — Graph

°F

Wermelskirchen temperature yesterday

Maximum temperature yesterday: 91 °F (at 4:20 PM)
Minimum temperature yesterday: 68 °F (at 5:50 AM)
Average temperature yesterday: 80 °F

Past Weeks' High & Low Weather Summary

 TemperatureHumidityPressure
High97 °F (Jul 2, 4:20 PM)94% (Jun 19, 9:50 PM)30.24 "Hg (Jun 19, 9:50 PM)
Low48 °F (Jun 22, 11:50 PM)17% (Jun 30, 3:50 PM)29.68 "Hg (Jun 22, 9:20 PM)
Average67 °F64%30.08 "Hg
* Reported Jun 19 9:20 PM — Jul 4 9:20 PM, Wermelskirchen, Weather by CustomWeather, © 2015

Note: Actual official high and low records may vary slightly from our data, if they occured in-between our weather recording intervals... More about our weather records

Advertising

Wermelskirchen weather history for previous 24 hours

 ConditionsComfort  
Time TempWeatherWind HumidityBarometerVisibility
9:20 PM
Sat, Jul 4
86 °FSunny.2 mph46%30.07 "Hg10 mi
8:50 PM88 °FSunny.3 mph40%30.07 "Hg10 mi
8:20 PM90 °FSunny.6 mph38%30.07 "Hg10 mi
7:50 PM91 °FSunny.6 mph34%30.07 "Hg10 mi
7:20 PM95 °FSunny.9 mph26%30.07 "Hg10 mi
6:50 PM95 °FSunny.8 mph26%30.07 "Hg10 mi
6:20 PM97 °FSunny.7 mph25%30.07 "Hg10 mi
5:50 PM95 °FSunny.7 mph28%30.07 "Hg10 mi
5:20 PM97 °FSunny.8 mph25%30.07 "Hg10 mi
4:50 PM97 °FSunny.9 mph25%30.07 "Hg10 mi
4:20 PM97 °FSunny.10 mph25%30.07 "Hg10 mi
3:50 PM97 °FSunny.13 mph23%30.07 "Hg10 mi
3:20 PM97 °FSunny.10 mph25%30.07 "Hg10 mi
2:50 PM97 °FPassing clouds.8 mph25%30.07 "HgN/A
2:20 PM97 °FSunny.6 mph27%30.07 "Hg10 mi
1:50 PM97 °FSunny.8 mph30%30.07 "Hg10 mi
1:20 PM93 °FSunny.3 mph34%30.07 "Hg10 mi
12:50 PM93 °FSunny.5 mph39%30.07 "Hg10 mi
12:20 PM91 °FSunny.8 mph38%30.07 "Hg10 mi
11:50 AM91 °FSunny.8 mph38%30.07 "Hg10 mi
11:20 AM90 °FSunny.8 mph43%30.07 "Hg10 mi
10:50 AM88 °FSunny.8 mph46%30.07 "Hg10 mi
10:20 AM86 °FSunny.7 mph49%30.07 "Hg10 mi
9:50 AM84 °FSunny.8 mph58%30.07 "Hg10 mi
9:20 AM84 °FSunny.9 mph55%30.07 "Hg10 mi
8:50 AM82 °FSunny.9 mph58%30.07 "Hg10 mi
8:20 AM81 °FSunny.6 mph62%30.07 "Hg10 mi
7:50 AM77 °FSunny.5 mph69%30.07 "Hg10 mi
7:20 AM75 °FSunny.5 mph74%30.07 "Hg10 mi
6:50 AM75 °FSunny.6 mph74%30.07 "Hg10 mi
6:20 AM75 °FClear.5 mph69%30.07 "Hg10 mi
5:50 AM72 °FClear.2 mph78%30.09 "Hg10 mi
5:20 AM72 °FClear.2 mph78%30.09 "Hg10 mi
4:50 AM72 °FClear.3 mph83%30.09 "Hg10 mi
4:20 AM70 °FClear.5 mph83%30.09 "Hg10 mi
3:50 AM72 °FClear.5 mph78%30.09 "Hg10 mi
3:20 AM72 °FClear.5 mph78%30.09 "Hg10 mi
2:50 AM73 °FClear.5 mph74%30.12 "Hg10 mi
2:20 AM75 °FClear.1 mph74%30.12 "Hg10 mi
1:50 AM73 °FPassing clouds.5 mph78%30.12 "HgN/A
1:20 AM79 °FClear.1 mph61%30.12 "Hg10 mi
12:50 AM79 °FClear.6 mph65%30.12 "Hg10 mi
12:20 AM79 °FClear.7 mph65%30.15 "Hg10 mi
11:50 PM
Fri, Jul 3
81 °FClear.9 mph62%30.15 "Hg10 mi
11:20 PM81 °FClear.8 mph62%30.15 "Hg10 mi
10:50 PM81 °FClear.8 mph62%30.15 "Hg10 mi
10:20 PM82 °FSunny.7 mph58%30.15 "Hg10 mi
Weather by CustomWeather, © 2015

See weather overviewHow to use our weather pages